UAE903 OMDB-OJAI

Flight info

Callsign UAE903
Flight time 3h 29m
Altitude 40000
Route ANVI7F ANVIX R401 GIDIS G783 RIGIL M628 AMBAG M321 KSA T503 BONIS V45 TRF R652 OBROD Q163 GENEX L53 SOBAK SOBA1G
Aircraft A359/H-SDE2E3GHIJ1J3J4J5LM1ORWXY/LB1D1

Departure

Time 2026-04-25 06:28
Airport Dubai International Airport (OMDB)

Arrival

Time 2026-04-25 09:57
Airport Queen Alia International Airport (OJAI)
Time Latitude Longitude Altitude Speed Heading
2026-04-25 05:26 25.24629 55.36370 27 ft 0 kts 31°
2026-04-25 05:27 25.24663 55.36309 27 ft 0 kts 31°
2026-04-25 06:13 25.24651 55.36300 26 ft 3 kts 31°
2026-04-25 06:13 25.24632 55.36287 27 ft 3 kts 31°
2026-04-25 06:13 25.24616 55.36276 26 ft 3 kts 43°
2026-04-25 06:14 25.24602 55.36235 25 ft 3 kts 112°
2026-04-25 06:14 25.24612 55.36214 25 ft 3 kts 121°
2026-04-25 06:14 25.24624 55.36193 27 ft 3 kts 121°
2026-04-25 06:14 25.24632 55.36177 26 ft 0 kts 121°
2026-04-25 06:17 25.24629 55.36183 25 ft 4 kts 120°
2026-04-25 06:18 25.24607 55.36226 25 ft 8 kts 122°
2026-04-25 06:18 25.24573 55.36285 27 ft 10 kts 122°
2026-04-25 06:18 25.24530 55.36360 27 ft 13 kts 122°
2026-04-25 06:18 25.24481 55.36447 27 ft 14 kts 122°
2026-04-25 06:19 25.24447 55.36547 27 ft 14 kts 95°
2026-04-25 06:19 25.24481 55.36652 27 ft 16 kts 49°
2026-04-25 06:19 25.24573 55.36724 27 ft 17 kts 31°
2026-04-25 06:19 25.24657 55.36780 27 ft 14 kts 31°
2026-04-25 06:20 25.24730 55.36835 28 ft 11 kts 50°
2026-04-25 06:20 25.24719 55.36908 28 ft 11 kts 123°
2026-04-25 06:20 25.24675 55.36987 28 ft 13 kts 122°
2026-04-25 06:20 25.24623 55.37080 28 ft 15 kts 122°
2026-04-25 06:21 25.24562 55.37187 27 ft 17 kts 122°
2026-04-25 06:21 25.24494 55.37308 27 ft 19 kts 122°
2026-04-25 06:21 25.24436 55.37430 27 ft 17 kts 105°
2026-04-25 06:21 25.24424 55.37568 27 ft 19 kts 94°
2026-04-25 06:22 25.24385 55.37685 28 ft 14 kts 120°
2026-04-25 06:22 25.24340 55.37766 28 ft 12 kts 122°
2026-04-25 06:22 25.24328 55.37816 28 ft 5 kts 76°
2026-04-25 06:22 25.24342 55.37830 28 ft 3 kts 39°
2026-04-25 06:23 25.24352 55.37837 28 ft 0 kts 34°
2026-04-25 06:25 25.24362 55.37845 28 ft 6 kts 34°
2026-04-25 06:25 25.24424 55.37892 30 ft 15 kts 34°
2026-04-25 06:25 25.24525 55.37969 31 ft 18 kts 34°
2026-04-25 06:25 25.24610 55.38032 29 ft 3 kts 32°
2026-04-25 06:26 25.24635 55.38050 30 ft 5 kts 31°
2026-04-25 06:26 25.24641 55.38053 30 ft 0 kts 31°
2026-04-25 06:26 25.24645 55.38056 30 ft 3 kts 31°
2026-04-25 06:26 25.24687 55.38084 31 ft 9 kts 31°
2026-04-25 06:27 25.24742 55.38102 32 ft 8 kts 355°
2026-04-25 06:27 25.24787 55.38060 32 ft 10 kts 303°
2026-04-25 06:27 25.24827 55.37987 31 ft 15 kts 302°
2026-04-25 06:27 25.24899 55.37859 32 ft 50 kts 302°
2026-04-25 06:28 25.25211 55.37297 32 ft 119 kts 301°
2026-04-25 06:28 25.25749 55.36325 45 ft 174 kts 302°
2026-04-25 06:28 25.26363 55.35210 843 ft 164 kts 301°
2026-04-25 06:28 25.26976 55.34147 1524 ft 168 kts 303°
2026-04-25 06:29 25.27613 55.33009 1988 ft 178 kts 302°
2026-04-25 06:29 25.28259 55.31831 2605 ft 181 kts 302°
2026-04-25 06:29 25.28878 55.30609 3185 ft 185 kts 296°
2026-04-25 06:29 25.29159 55.29213 3763 ft 190 kts 272°
2026-04-25 06:30 25.28879 55.27784 4385 ft 192 kts 250°
2026-04-25 06:30 25.28325 55.26442 5010 ft 192 kts 247°
2026-04-25 06:30 25.27741 55.25110 5528 ft 199 kts 247°
2026-04-25 06:30 25.27132 55.23711 6043 ft 204 kts 246°
2026-04-25 06:31 25.26519 55.22293 6631 ft 205 kts 246°
2026-04-25 06:31 25.25904 55.20864 7207 ft 209 kts 246°
2026-04-25 06:31 25.25255 55.19359 7543 ft 227 kts 246°
2026-04-25 06:31 25.24352 55.17855 7985 ft 243 kts 226°
2026-04-25 06:32 25.22898 55.16889 8718 ft 249 kts 198°
2026-04-25 06:32 25.21159 55.16729 9534 ft 255 kts 179°
2026-04-25 06:32 25.19393 55.17166 10170 ft 266 kts 157°
2026-04-25 06:32 25.17913 55.18416 10891 ft 274 kts 130°
2026-04-25 06:33 25.16881 55.20234 11447 ft 288 kts 119°
2026-04-25 06:33 25.15939 55.22254 11979 ft 301 kts 118°
2026-04-25 06:33 25.14978 55.24330 12689 ft 306 kts 118°
2026-04-25 06:33 25.13988 55.26437 13333 ft 316 kts 119°
2026-04-25 06:34 25.12939 55.28647 13709 ft 334 kts 118°
2026-04-25 06:34 25.11824 55.30976 14009 ft 351 kts 119°
2026-04-25 06:34 25.10657 55.33409 14289 ft 366 kts 119°
2026-04-25 06:34 25.09530 55.35946 14581 ft 380 kts 115°
2026-04-25 06:35 25.08447 55.38643 14989 ft 388 kts 115°
2026-04-25 06:35 25.07348 55.41381 15490 ft 393 kts 115°
2026-04-25 06:35 25.06252 55.44159 16037 ft 397 kts 114°
2026-04-25 06:35 25.05185 55.46980 16577 ft 400 kts 114°
2026-04-25 06:36 25.04105 55.49831 17118 ft 404 kts 114°
2026-04-25 06:36 25.03010 55.52699 17698 ft 406 kts 115°
2026-04-25 06:36 25.01849 55.55536 18283 ft 407 kts 119°
2026-04-25 06:36 25.00452 55.58265 18736 ft 410 kts 122°
2026-04-25 06:37 24.98980 55.60985 19148 ft 415 kts 122°
2026-04-25 06:37 24.97489 55.63731 19587 ft 420 kts 122°
2026-04-25 06:37 24.95982 55.66508 20035 ft 424 kts 122°
2026-04-25 06:37 24.94450 55.69304 20489 ft 428 kts 124°
2026-04-25 06:38 24.92773 55.71988 20949 ft 432 kts 128°
2026-04-25 06:38 24.90997 55.74671 21398 ft 436 kts 128°
2026-04-25 06:38 24.89197 55.77380 21855 ft 441 kts 128°
2026-04-25 06:38 24.87372 55.80124 22309 ft 445 kts 128°
2026-04-25 06:39 24.85538 55.82886 22769 ft 450 kts 128°
2026-04-25 06:39 24.83637 55.85650 23237 ft 453 kts 132°
2026-04-25 06:39 24.81451 55.88144 23666 ft 454 kts 141°
2026-04-25 06:39 24.78905 55.90206 24076 ft 454 kts 152°
2026-04-25 06:40 24.76081 55.91759 24530 ft 453 kts 161°
2026-04-25 06:40 24.73071 55.92762 24998 ft 452 kts 171°
2026-04-25 06:40 24.69956 55.93194 25468 ft 451 kts 181°
2026-04-25 06:40 24.66829 55.93046 25939 ft 450 kts 191°
2026-04-25 06:41 24.63778 55.92329 26427 ft 449 kts 200°
2026-04-25 06:41 24.60880 55.91067 26894 ft 448 kts 209°
2026-04-25 06:41 24.58217 55.89295 27351 ft 448 kts 219°
2026-04-25 06:41 24.55887 55.87093 27802 ft 448 kts 227°
2026-04-25 06:42 24.53885 55.84468 28279 ft 448 kts 236°
2026-04-25 06:42 24.52009 55.81711 28726 ft 452 kts 233°
2026-04-25 06:42 24.49855 55.79173 29164 ft 458 kts 224°
2026-04-25 06:42 24.47299 55.77047 29588 ft 464 kts 214°
2026-04-25 06:43 24.44481 55.75267 29984 ft 470 kts 211°
2026-04-25 06:43 24.41568 55.73622 30343 ft 473 kts 209°
2026-04-25 06:43 24.38628 55.71947 30695 ft 474 kts 213°
2026-04-25 06:43 24.35899 55.69919 31039 ft 474 kts 220°
2026-04-25 06:44 24.33318 55.67654 31374 ft 475 kts 222°
2026-04-25 06:44 24.30782 55.65309 31709 ft 477 kts 223°
2026-04-25 06:44 24.28226 55.63044 31998 ft 481 kts 218°
2026-04-25 06:44 24.25371 55.61086 32277 ft 487 kts 210°
2026-04-25 06:45 24.22238 55.59609 32567 ft 493 kts 201°
2026-04-25 06:45 24.18976 55.58477 33003 ft 493 kts 199°
2026-04-25 06:45 24.15673 55.57448 33439 ft 492 kts 198°
2026-04-25 06:45 24.12368 55.56473 33857 ft 491 kts 198°
2026-04-25 06:46 24.09058 55.55514 34232 ft 490 kts 198°
2026-04-25 06:46 24.05765 55.54559 34552 ft 490 kts 198°
2026-04-25 06:46 24.02466 55.53593 34842 ft 490 kts 199°
2026-04-25 06:46 23.99177 55.52625 35149 ft 490 kts 199°
2026-04-25 06:47 23.95886 55.51653 35463 ft 489 kts 199°
2026-04-25 06:47 23.92602 55.50679 35788 ft 488 kts 199°
2026-04-25 06:47 23.89325 55.49704 36062 ft 489 kts 200°
2026-04-25 06:47 23.86032 55.48725 36326 ft 489 kts 200°
2026-04-25 06:48 23.82745 55.47752 36585 ft 489 kts 200°
2026-04-25 06:48 23.79455 55.46777 36848 ft 490 kts 200°
2026-04-25 06:48 23.76166 55.45799 37122 ft 489 kts 200°
2026-04-25 06:48 23.72887 55.44823 37388 ft 489 kts 201°
2026-04-25 06:49 23.69642 55.43858 37614 ft 490 kts 201°
2026-04-25 06:49 23.66353 55.42881 37801 ft 491 kts 201°
2026-04-25 06:49 23.63050 55.41901 38040 ft 491 kts 201°
2026-04-25 06:49 23.59750 55.40924 38295 ft 491 kts 201°
2026-04-25 06:50 23.56444 55.39945 38533 ft 491 kts 201°
2026-04-25 06:50 23.53143 55.38969 38730 ft 491 kts 201°
2026-04-25 06:50 23.49842 55.37997 38932 ft 491 kts 201°
2026-04-25 06:50 23.46548 55.37028 39140 ft 490 kts 201°
2026-04-25 06:51 23.43262 55.36058 39337 ft 489 kts 201°
2026-04-25 06:51 23.39971 55.35084 39477 ft 489 kts 201°
2026-04-25 06:51 23.36678 55.34108 39590 ft 491 kts 201°
2026-04-25 06:51 23.33376 55.33131 39765 ft 490 kts 201°
2026-04-25 06:52 23.30134 55.32174 39918 ft 490 kts 201°
2026-04-25 06:52 23.23546 55.30232 39937 ft 489 kts 201°
2026-04-25 06:53 23.16978 55.28298 39935 ft 489 kts 201°
2026-04-25 06:53 23.10634 55.25827 39925 ft 478 kts 214°
2026-04-25 06:54 23.05400 55.21687 39930 ft 463 kts 231°
2026-04-25 06:54 23.01713 55.16117 39923 ft 450 kts 248°
2026-04-25 06:55 22.99831 55.09745 39922 ft 441 kts 264°
2026-04-25 06:55 22.98717 55.03174 39919 ft 442 kts 262°
2026-04-25 06:56 22.97500 54.96628 39913 ft 442 kts 262°
2026-04-25 06:56 22.96236 54.90098 39913 ft 442 kts 261°
2026-04-25 06:57 22.94944 54.83580 39922 ft 442 kts 261°
2026-04-25 06:57 22.93656 54.77116 39921 ft 442 kts 261°
2026-04-25 06:58 22.92356 54.70604 39920 ft 441 kts 261°
2026-04-25 06:58 22.91058 54.64105 39929 ft 440 kts 261°
2026-04-25 06:59 22.89757 54.57606 39925 ft 440 kts 261°
2026-04-25 06:59 22.88455 54.51112 39928 ft 440 kts 261°
2026-04-25 07:00 22.87151 54.44627 39931 ft 440 kts 261°
2026-04-25 07:00 22.85852 54.38182 39938 ft 439 kts 261°
2026-04-25 07:01 22.84545 54.31710 39931 ft 439 kts 261°
2026-04-25 07:01 22.83237 54.25242 39934 ft 439 kts 261°
2026-04-25 07:02 22.81926 54.18779 39939 ft 439 kts 261°
2026-04-25 07:02 22.80622 54.12363 39930 ft 438 kts 261°
2026-04-25 07:03 22.79308 54.05910 39935 ft 438 kts 261°
2026-04-25 07:03 22.78226 53.99421 39936 ft 435 kts 268°
2026-04-25 07:04 22.78197 53.92903 39934 ft 432 kts 274°
2026-04-25 07:04 22.78407 53.86400 39947 ft 431 kts 274°
2026-04-25 07:05 22.78645 53.79961 39945 ft 430 kts 274°
2026-04-25 07:05 22.78871 53.73477 39937 ft 431 kts 274°
2026-04-25 07:06 22.79084 53.66998 39934 ft 430 kts 274°
2026-04-25 07:06 22.79290 53.60521 39937 ft 429 kts 274°
2026-04-25 07:07 22.79493 53.54046 39949 ft 429 kts 274°
2026-04-25 07:07 22.79693 53.47611 39947 ft 429 kts 274°
2026-04-25 07:08 22.79893 53.41152 39942 ft 429 kts 274°
2026-04-25 07:08 22.80090 53.34676 39949 ft 429 kts 274°
2026-04-25 07:09 22.80284 53.28209 39954 ft 429 kts 274°
2026-04-25 07:09 22.80476 53.21738 39949 ft 430 kts 274°
2026-04-25 07:10 22.80664 53.15267 39955 ft 430 kts 274°
2026-04-25 07:10 22.80850 53.08822 39962 ft 430 kts 274°
2026-04-25 07:11 22.81033 53.02340 39957 ft 430 kts 274°
2026-04-25 07:11 22.81215 52.95851 39959 ft 429 kts 273°
2026-04-25 07:12 22.81393 52.89376 39961 ft 428 kts 273°
2026-04-25 07:12 22.81654 52.79732 39959 ft 428 kts 273°
2026-04-25 07:13 22.81825 52.73273 39959 ft 428 kts 274°
2026-04-25 07:13 22.81994 52.66830 39956 ft 427 kts 274°
2026-04-25 07:14 22.82159 52.60398 39956 ft 427 kts 273°
2026-04-25 07:14 22.82322 52.53966 39963 ft 427 kts 273°
2026-04-25 07:15 22.82456 52.48613 39959 ft 426 kts 273°
2026-04-25 07:15 22.82622 52.41148 39961 ft 426 kts 273°
2026-04-25 07:16 22.82728 52.35766 39963 ft 426 kts 273°
2026-04-25 07:16 22.82854 52.29381 39963 ft 426 kts 273°
2026-04-25 07:17 22.82980 52.22966 39972 ft 425 kts 273°
2026-04-25 07:17 22.83106 52.16558 39964 ft 425 kts 273°
2026-04-25 07:18 22.83228 52.10154 39974 ft 425 kts 273°
2026-04-25 07:18 22.83348 52.03747 39964 ft 425 kts 273°
2026-04-25 07:19 22.83465 51.97355 39966 ft 424 kts 273°
2026-04-25 07:19 22.83580 51.90958 39967 ft 424 kts 273°
2026-04-25 07:20 22.83692 51.84573 39966 ft 423 kts 273°
2026-04-25 07:20 22.83801 51.78187 39975 ft 423 kts 273°
2026-04-25 07:21 22.83908 51.71812 39967 ft 423 kts 273°
2026-04-25 07:21 22.84012 51.65447 39974 ft 422 kts 273°
2026-04-25 07:22 22.84114 51.59079 39969 ft 422 kts 273°
2026-04-25 07:22 22.84212 51.52712 39970 ft 422 kts 273°
2026-04-25 07:23 22.84309 51.46355 39974 ft 422 kts 273°
2026-04-25 07:23 22.84608 51.40021 39980 ft 421 kts 276°
2026-04-25 07:24 22.85119 51.33739 39978 ft 421 kts 277°
2026-04-25 07:24 22.85611 51.27416 39974 ft 421 kts 276°
2026-04-25 07:25 22.86059 51.21091 39976 ft 421 kts 276°
2026-04-25 07:25 22.86488 51.14762 39979 ft 421 kts 276°
2026-04-25 07:26 22.86918 51.08434 39978 ft 421 kts 276°
2026-04-25 07:26 22.87340 51.02104 39979 ft 421 kts 276°
2026-04-25 07:27 22.87760 50.95775 39989 ft 421 kts 276°
2026-04-25 07:27 22.88177 50.89478 39981 ft 421 kts 276°
2026-04-25 07:28 22.88595 50.83146 39989 ft 421 kts 276°
2026-04-25 07:28 22.89010 50.76818 39985 ft 420 kts 276°
2026-04-25 07:29 22.89422 50.70492 39992 ft 420 kts 276°
2026-04-25 07:29 22.89832 50.64165 39983 ft 420 kts 276°
2026-04-25 07:30 22.90239 50.57834 39995 ft 420 kts 276°
2026-04-25 07:30 22.90643 50.51522 39993 ft 419 kts 276°
2026-04-25 07:31 22.91044 50.45209 39984 ft 419 kts 276°
2026-04-25 07:31 22.91440 50.38937 39987 ft 419 kts 276°
2026-04-25 07:32 22.91836 50.32627 39987 ft 419 kts 276°
2026-04-25 07:32 22.92230 50.26309 39992 ft 419 kts 276°
2026-04-25 07:33 22.92622 50.19993 39985 ft 419 kts 276°
2026-04-25 07:33 22.93008 50.13725 39985 ft 419 kts 276°
2026-04-25 07:34 22.93394 50.07410 39988 ft 419 kts 276°
2026-04-25 07:34 22.93777 50.01107 39992 ft 419 kts 276°
2026-04-25 07:35 22.94158 49.94798 39988 ft 419 kts 276°
2026-04-25 07:35 22.94537 49.88481 39994 ft 419 kts 276°
2026-04-25 07:36 22.94912 49.82178 39986 ft 418 kts 276°
2026-04-25 07:36 22.95285 49.75876 39994 ft 418 kts 276°
2026-04-25 07:37 22.95653 49.69618 39989 ft 418 kts 276°
2026-04-25 07:37 22.96020 49.63321 39990 ft 418 kts 276°
2026-04-25 07:38 22.96386 49.57021 39988 ft 418 kts 276°
2026-04-25 07:38 22.96749 49.50713 39987 ft 418 kts 276°
2026-04-25 07:39 22.97107 49.44447 39995 ft 418 kts 276°
2026-04-25 07:39 22.97466 49.38138 39988 ft 418 kts 276°
2026-04-25 07:40 22.97821 49.31836 39990 ft 418 kts 276°
2026-04-25 07:40 22.98174 49.25525 39989 ft 418 kts 276°
2026-04-25 07:41 22.98525 49.19223 39999 ft 418 kts 275°
2026-04-25 07:41 22.98869 49.12980 39995 ft 417 kts 275°
2026-04-25 07:42 22.99213 49.06705 39993 ft 416 kts 275°
2026-04-25 07:42 22.99554 49.00431 39996 ft 416 kts 275°
2026-04-25 07:43 22.99975 48.94171 39991 ft 416 kts 277°
2026-04-25 07:43 23.00517 48.87924 39994 ft 416 kts 277°
2026-04-25 07:44 23.01053 48.81677 39994 ft 416 kts 277°
2026-04-25 07:44 23.01565 48.75425 39995 ft 416 kts 277°
2026-04-25 07:45 23.02065 48.69166 39999 ft 416 kts 277°
2026-04-25 07:45 23.02560 48.62921 40000 ft 416 kts 277°
2026-04-25 07:46 23.03054 48.56667 40004 ft 415 kts 277°
2026-04-25 07:46 23.03543 48.50462 40001 ft 415 kts 277°
2026-04-25 07:47 23.04032 48.44221 40002 ft 415 kts 277°
2026-04-25 07:47 23.04518 48.37986 40002 ft 415 kts 277°
2026-04-25 07:48 23.05003 48.31737 40001 ft 415 kts 277°
2026-04-25 07:48 23.05484 48.25501 40002 ft 415 kts 277°
2026-04-25 07:49 23.05963 48.19252 40007 ft 415 kts 276°
2026-04-25 07:49 23.06436 48.13052 40007 ft 415 kts 276°
2026-04-25 07:50 23.06911 48.06812 40008 ft 414 kts 276°
2026-04-25 07:50 23.07382 48.00571 40004 ft 414 kts 276°
2026-04-25 07:51 23.07852 47.94324 40015 ft 414 kts 276°
2026-04-25 07:51 23.08332 47.88103 40016 ft 413 kts 278°
2026-04-25 07:52 23.09632 47.82045 40018 ft 412 kts 290°
2026-04-25 07:52 23.12366 47.76573 40026 ft 416 kts 304°
2026-04-25 07:53 23.16462 47.72113 40025 ft 426 kts 318°
2026-04-25 07:53 23.21448 47.68557 40042 ft 430 kts 322°
2026-04-25 07:54 23.26562 47.65150 40036 ft 431 kts 322°
2026-04-25 07:54 23.31673 47.61739 40039 ft 431 kts 322°
2026-04-25 07:55 23.36766 47.58303 40042 ft 430 kts 322°
2026-04-25 07:55 23.41849 47.54855 40058 ft 431 kts 321°
2026-04-25 07:56 23.46941 47.51397 40051 ft 431 kts 321°
2026-04-25 07:56 23.52015 47.47961 40057 ft 431 kts 321°
2026-04-25 07:57 23.57109 47.44495 40060 ft 431 kts 321°
2026-04-25 07:57 23.62209 47.41022 40065 ft 431 kts 321°
2026-04-25 07:58 23.67302 47.37554 40051 ft 431 kts 321°
2026-04-25 07:58 23.72396 47.34083 40066 ft 431 kts 321°
2026-04-25 07:59 23.77454 47.30634 40066 ft 431 kts 321°
2026-04-25 07:59 23.82552 47.27154 40061 ft 431 kts 321°
2026-04-25 08:00 23.87649 47.23671 40059 ft 431 kts 321°
2026-04-25 08:00 23.92734 47.20194 40076 ft 431 kts 321°
2026-04-25 08:01 23.97820 47.16713 40080 ft 431 kts 321°
2026-04-25 08:01 24.02913 47.13223 40086 ft 431 kts 321°
2026-04-25 08:02 24.07966 47.09758 40085 ft 431 kts 321°
2026-04-25 08:02 24.13262 47.06587 40068 ft 439 kts 328°
2026-04-25 08:03 24.18873 47.03897 40091 ft 440 kts 329°
2026-04-25 08:03 24.24510 47.01290 40083 ft 440 kts 329°
2026-04-25 08:04 24.29203 46.99124 40086 ft 439 kts 329°
2026-04-25 08:04 24.35781 46.96069 40082 ft 439 kts 329°
2026-04-25 08:05 24.40463 46.93886 40095 ft 439 kts 328°
2026-04-25 08:05 24.46997 46.90837 40083 ft 439 kts 328°
2026-04-25 08:06 24.51706 46.88637 40089 ft 439 kts 328°
2026-04-25 08:06 24.57288 46.86027 40088 ft 439 kts 328°
2026-04-25 08:07 24.62904 46.83399 40084 ft 438 kts 328°
2026-04-25 08:07 24.68523 46.80767 40089 ft 438 kts 328°
2026-04-25 08:08 24.74134 46.78136 40092 ft 438 kts 328°
2026-04-25 08:08 24.79745 46.75502 40101 ft 438 kts 328°
2026-04-25 08:09 24.85352 46.72868 40101 ft 438 kts 328°
2026-04-25 08:09 24.90960 46.70230 40102 ft 438 kts 328°
2026-04-25 08:10 24.96452 46.67475 40103 ft 431 kts 322°
2026-04-25 08:10 25.01218 46.63639 40102 ft 420 kts 312°
2026-04-25 08:11 25.05553 46.59314 40100 ft 419 kts 310°
2026-04-25 08:11 25.09819 46.54920 40095 ft 419 kts 310°
2026-04-25 08:12 25.14086 46.50525 40105 ft 420 kts 310°
2026-04-25 08:12 25.18340 46.46163 40086 ft 420 kts 310°
2026-04-25 08:13 25.22638 46.41762 40083 ft 421 kts 310°
2026-04-25 08:14 25.29078 46.35161 40075 ft 421 kts 310°
2026-04-25 08:14 25.33365 46.30760 40071 ft 421 kts 310°
2026-04-25 08:15 25.37663 46.26342 40067 ft 421 kts 310°
2026-04-25 08:15 25.41929 46.21953 40067 ft 421 kts 310°
2026-04-25 08:16 25.46220 46.17533 40066 ft 421 kts 310°
2026-04-25 08:16 25.50514 46.13106 40053 ft 422 kts 310°
2026-04-25 08:17 25.54819 46.08663 40049 ft 423 kts 310°
2026-04-25 08:17 25.59122 46.04217 40050 ft 423 kts 310°
2026-04-25 08:18 25.63425 45.99772 40058 ft 423 kts 310°
2026-04-25 08:18 25.67727 45.95321 40044 ft 424 kts 309°
2026-04-25 08:19 25.72029 45.90859 40048 ft 423 kts 309°
2026-04-25 08:19 25.76305 45.86421 40045 ft 423 kts 309°
2026-04-25 08:20 25.80603 45.81957 40043 ft 423 kts 309°
2026-04-25 08:20 25.84902 45.77487 40045 ft 423 kts 309°
2026-04-25 08:21 25.89198 45.73020 40044 ft 422 kts 309°
2026-04-25 08:21 25.93483 45.68554 40045 ft 422 kts 309°
2026-04-25 08:22 25.97765 45.64085 40048 ft 422 kts 309°
2026-04-25 08:22 26.02014 45.59647 40033 ft 421 kts 309°
2026-04-25 08:23 26.06295 45.55171 40032 ft 421 kts 309°
2026-04-25 08:23 26.10570 45.50699 40047 ft 421 kts 309°
2026-04-25 08:24 26.14837 45.46228 40029 ft 421 kts 309°
2026-04-25 08:24 26.19111 45.41754 40031 ft 422 kts 309°
2026-04-25 08:25 26.23356 45.37301 40031 ft 421 kts 309°
2026-04-25 08:25 26.27619 45.32819 40031 ft 421 kts 309°
2026-04-25 08:26 26.31874 45.28348 40022 ft 421 kts 309°
2026-04-25 08:26 26.36149 45.23867 40020 ft 421 kts 309°
2026-04-25 08:27 26.40415 45.19390 40017 ft 421 kts 309°
2026-04-25 08:27 26.44681 45.14908 40019 ft 421 kts 309°
2026-04-25 08:28 26.48947 45.10421 40017 ft 421 kts 309°
2026-04-25 08:28 26.53214 45.05931 40016 ft 421 kts 308°
2026-04-25 08:29 26.57450 45.01466 40012 ft 421 kts 308°
2026-04-25 08:29 26.61726 44.96957 40014 ft 423 kts 308°
2026-04-25 08:30 26.66007 44.92437 40014 ft 423 kts 308°
2026-04-25 08:30 26.70285 44.87917 40013 ft 423 kts 308°
2026-04-25 08:31 26.74536 44.83421 40013 ft 423 kts 308°
2026-04-25 08:31 26.78812 44.78897 40013 ft 423 kts 308°
2026-04-25 08:32 26.83077 44.74368 40006 ft 423 kts 308°
2026-04-25 08:32 26.87344 44.69825 40007 ft 423 kts 308°
2026-04-25 08:33 26.91606 44.65285 40012 ft 423 kts 308°
2026-04-25 08:33 26.95873 44.60737 40024 ft 423 kts 308°
2026-04-25 08:34 27.00140 44.56187 40002 ft 423 kts 308°
2026-04-25 08:34 27.04410 44.51623 40004 ft 423 kts 308°
2026-04-25 08:35 27.08640 44.47090 40005 ft 423 kts 308°
2026-04-25 08:35 27.12898 44.42524 39999 ft 423 kts 308°
2026-04-25 08:36 27.17155 44.37956 40000 ft 423 kts 308°
2026-04-25 08:36 27.21419 44.33390 40001 ft 423 kts 308°
2026-04-25 08:37 27.25673 44.28822 40003 ft 423 kts 308°
2026-04-25 08:37 27.29938 44.24238 40002 ft 423 kts 308°
2026-04-25 08:38 27.34173 44.19681 40004 ft 424 kts 308°
2026-04-25 08:38 27.38434 44.15091 40002 ft 424 kts 308°
2026-04-25 08:39 27.42699 44.10494 39998 ft 424 kts 308°
2026-04-25 08:39 27.46964 44.05892 39996 ft 424 kts 308°
2026-04-25 08:40 27.51235 44.01278 40006 ft 424 kts 308°
2026-04-25 08:40 27.55500 43.96663 39996 ft 425 kts 307°
2026-04-25 08:41 27.59737 43.92074 39992 ft 425 kts 307°
2026-04-25 08:41 27.64006 43.87447 39990 ft 425 kts 307°
2026-04-25 08:42 27.68276 43.82813 40002 ft 425 kts 307°
2026-04-25 08:42 27.72543 43.78176 39990 ft 426 kts 307°
2026-04-25 08:43 27.76810 43.73534 39982 ft 426 kts 307°
2026-04-25 08:43 27.81074 43.68890 39984 ft 426 kts 307°
2026-04-25 08:44 27.85341 43.64235 39980 ft 425 kts 307°
2026-04-25 08:44 27.89422 43.59432 39981 ft 422 kts 304°
2026-04-25 08:45 27.93362 43.54569 39983 ft 422 kts 304°
2026-04-25 08:45 27.97352 43.49686 39981 ft 423 kts 304°
2026-04-25 08:46 28.01371 43.44818 39995 ft 423 kts 304°
2026-04-25 08:46 28.05399 43.39952 39987 ft 423 kts 304°
2026-04-25 08:47 28.09431 43.35076 39979 ft 425 kts 304°
2026-04-25 08:47 28.13439 43.30222 39979 ft 425 kts 304°
2026-04-25 08:48 28.17478 43.25324 39979 ft 425 kts 304°
2026-04-25 08:48 28.21507 43.20430 39981 ft 425 kts 304°
2026-04-25 08:49 28.25544 43.15521 39973 ft 425 kts 304°
2026-04-25 08:49 28.29576 43.10612 39974 ft 425 kts 304°
2026-04-25 08:50 28.33605 43.05702 39972 ft 425 kts 304°
2026-04-25 08:50 28.37633 43.00786 39974 ft 425 kts 304°
2026-04-25 08:51 28.41639 42.95892 39969 ft 425 kts 304°
2026-04-25 08:51 28.45666 42.90966 39969 ft 425 kts 304°
2026-04-25 08:52 28.49688 42.86042 39972 ft 424 kts 304°
2026-04-25 08:52 28.53039 42.81933 39972 ft 424 kts 304°
2026-04-25 08:53 28.57707 42.76203 39956 ft 424 kts 304°
2026-04-25 08:53 28.61066 42.72074 39968 ft 424 kts 304°
2026-04-25 08:54 28.65044 42.67180 39969 ft 424 kts 304°
2026-04-25 08:54 28.69046 42.62252 39969 ft 424 kts 304°
2026-04-25 08:55 28.73044 42.57318 39956 ft 423 kts 304°
2026-04-25 08:55 28.77039 42.52382 39954 ft 423 kts 304°
2026-04-25 08:56 28.81035 42.47440 39952 ft 423 kts 304°
2026-04-25 08:56 28.85000 42.42531 39962 ft 423 kts 304°
2026-04-25 08:57 28.88990 42.37584 39963 ft 425 kts 304°
2026-04-25 08:57 28.93005 42.32596 39955 ft 428 kts 304°
2026-04-25 08:58 28.97039 42.27584 39952 ft 428 kts 304°
2026-04-25 08:58 29.01064 42.22578 39953 ft 428 kts 304°
2026-04-25 08:59 29.05098 42.17557 39953 ft 428 kts 304°
2026-04-25 08:59 29.09107 42.12562 39951 ft 429 kts 304°
2026-04-25 09:00 29.13134 42.07527 39954 ft 429 kts 304°
2026-04-25 09:00 29.17156 42.02493 39958 ft 429 kts 304°
2026-04-25 09:01 29.21180 41.97455 39965 ft 429 kts 304°
2026-04-25 09:01 29.25209 41.92402 39955 ft 429 kts 304°
2026-04-25 09:02 29.29234 41.87350 39974 ft 429 kts 304°
2026-04-25 09:02 29.33256 41.82295 39956 ft 430 kts 304°
2026-04-25 09:03 29.37285 41.77224 39973 ft 430 kts 304°
2026-04-25 09:03 29.41283 41.72186 39962 ft 430 kts 304°
2026-04-25 09:04 29.45308 41.67108 39962 ft 430 kts 304°
2026-04-25 09:04 29.49332 41.62024 39961 ft 430 kts 304°
2026-04-25 09:05 29.53353 41.56938 39963 ft 430 kts 304°
2026-04-25 09:05 29.57371 41.51849 39959 ft 430 kts 304°
2026-04-25 09:06 29.61392 41.46750 39953 ft 430 kts 304°
2026-04-25 09:06 29.65408 41.41651 39958 ft 430 kts 304°
2026-04-25 09:07 29.69399 41.36577 39960 ft 430 kts 304°
2026-04-25 09:07 29.73442 41.31491 39973 ft 434 kts 306°
2026-04-25 09:08 29.77908 41.26730 39971 ft 438 kts 309°
2026-04-25 09:08 29.82475 41.22036 39970 ft 439 kts 309°
2026-04-25 09:09 29.87013 41.17396 39970 ft 439 kts 309°
2026-04-25 09:09 29.91575 41.12716 40000 ft 439 kts 309°
2026-04-25 09:10 29.96131 41.08027 39972 ft 439 kts 309°
2026-04-25 09:10 30.00687 41.03327 39974 ft 439 kts 309°
2026-04-25 09:11 30.07518 40.96273 39978 ft 439 kts 309°
2026-04-25 09:11 30.12082 40.91549 39972 ft 441 kts 309°
2026-04-25 09:12 30.16626 40.86842 39968 ft 441 kts 309°
2026-04-25 09:12 30.21198 40.82102 39969 ft 441 kts 309°
2026-04-25 09:13 30.25767 40.77359 39968 ft 441 kts 309°
2026-04-25 09:13 30.30333 40.72611 39968 ft 441 kts 309°
2026-04-25 09:14 30.34901 40.67856 39969 ft 441 kts 309°
2026-04-25 09:14 30.39457 40.63107 39968 ft 441 kts 309°
2026-04-25 09:15 30.44027 40.58411 39971 ft 442 kts 310°
2026-04-25 09:15 30.48659 40.53685 39968 ft 444 kts 310°
2026-04-25 09:16 30.53297 40.48941 39966 ft 445 kts 310°
2026-04-25 09:16 30.57931 40.44186 39966 ft 444 kts 310°
2026-04-25 09:17 30.64883 40.37034 39968 ft 445 kts 310°
2026-04-25 09:18 30.69481 40.32296 39969 ft 445 kts 310°
2026-04-25 09:18 30.74115 40.27514 39969 ft 444 kts 310°
2026-04-25 09:19 30.78738 40.22737 39973 ft 445 kts 310°
2026-04-25 09:19 30.83375 40.17937 39974 ft 447 kts 310°
2026-04-25 09:20 30.88033 40.13111 39971 ft 448 kts 310°
2026-04-25 09:20 30.92689 40.08283 39974 ft 448 kts 310°
2026-04-25 09:21 30.97340 40.03452 39973 ft 448 kts 310°
2026-04-25 09:21 31.01985 39.98621 39978 ft 448 kts 310°
2026-04-25 09:22 31.06634 39.93778 39984 ft 448 kts 310°
2026-04-25 09:22 31.11283 39.88929 39981 ft 448 kts 310°
2026-04-25 09:23 31.15912 39.84093 39984 ft 450 kts 310°
2026-04-25 09:23 31.20586 39.79202 39993 ft 451 kts 310°
2026-04-25 09:24 31.25259 39.74308 39995 ft 451 kts 310°
2026-04-25 09:24 31.29908 39.69434 39993 ft 451 kts 310°
2026-04-25 09:25 31.34582 39.64525 39995 ft 451 kts 310°
2026-04-25 09:25 31.39250 39.59607 39995 ft 450 kts 310°
2026-04-25 09:26 31.43215 39.54090 39998 ft 437 kts 296°
2026-04-25 09:26 31.45800 39.47753 39999 ft 430 kts 287°
2026-04-25 09:27 31.47950 39.41212 40001 ft 430 kts 286°
2026-04-25 09:27 31.50025 39.34693 39999 ft 430 kts 286°
2026-04-25 09:28 31.52132 39.28112 39999 ft 432 kts 286°
2026-04-25 09:28 31.54256 39.21520 39997 ft 433 kts 286°
2026-04-25 09:29 31.56390 39.14904 39993 ft 433 kts 286°
2026-04-25 09:29 31.58517 39.08295 39998 ft 433 kts 286°
2026-04-25 09:30 31.60641 39.01679 39989 ft 433 kts 286°
2026-04-25 09:30 31.62750 38.95095 39993 ft 433 kts 286°
2026-04-25 09:31 31.64869 38.88466 39981 ft 433 kts 286°
2026-04-25 09:31 31.66980 38.81852 39963 ft 433 kts 286°
2026-04-25 09:32 31.68532 38.75096 39964 ft 426 kts 274°
2026-04-25 09:32 31.68524 38.68205 39961 ft 421 kts 260°
2026-04-25 09:33 31.67389 38.61450 39967 ft 422 kts 257°
2026-04-25 09:33 31.66082 38.54761 39970 ft 424 kts 256°
2026-04-25 09:34 31.64754 38.48007 39971 ft 424 kts 257°
2026-04-25 09:34 31.63447 38.41253 39972 ft 424 kts 257°
2026-04-25 09:35 31.62152 38.34523 39971 ft 422 kts 257°
2026-04-25 09:35 31.60857 38.27806 39970 ft 421 kts 257°
2026-04-25 09:36 31.59560 38.21106 39970 ft 421 kts 257°
2026-04-25 09:36 31.58257 38.14392 39963 ft 422 kts 257°
2026-04-25 09:37 31.56954 38.07703 39922 ft 423 kts 257°
2026-04-25 09:37 31.56296 38.04335 39692 ft 423 kts 257°
2026-04-25 09:37 31.55640 38.00977 39430 ft 423 kts 257°
2026-04-25 09:37 31.54980 37.97603 39189 ft 422 kts 257°
2026-04-25 09:38 31.54327 37.94272 38738 ft 418 kts 257°
2026-04-25 09:38 31.53674 37.90945 38038 ft 418 kts 257°
2026-04-25 09:38 31.53022 37.87631 37376 ft 417 kts 257°
2026-04-25 09:38 31.52370 37.84318 36723 ft 416 kts 256°
2026-04-25 09:39 31.51718 37.81015 36054 ft 416 kts 256°
2026-04-25 09:39 31.51073 37.77750 35385 ft 417 kts 256°
2026-04-25 09:39 31.50418 37.74436 34689 ft 419 kts 256°
2026-04-25 09:40 31.49575 37.67618 33030 ft 429 kts 266°
2026-04-25 09:40 31.49495 37.64103 32188 ft 434 kts 267°
2026-04-25 09:40 31.49472 37.61751 31585 ft 437 kts 268°
2026-04-25 09:40 31.49465 37.58125 30672 ft 442 kts 268°
2026-04-25 09:41 31.49472 37.54543 29698 ft 447 kts 268°
2026-04-25 09:41 31.49481 37.50892 28854 ft 447 kts 268°
2026-04-25 09:41 31.49486 37.47258 28149 ft 444 kts 268°
2026-04-25 09:41 31.49486 37.43650 27427 ft 441 kts 268°
2026-04-25 09:42 31.49481 37.40057 26727 ft 438 kts 267°
2026-04-25 09:42 31.49472 37.36494 26028 ft 436 kts 267°
2026-04-25 09:42 31.49460 37.32944 25331 ft 433 kts 267°
2026-04-25 09:42 31.49447 37.29427 24637 ft 431 kts 267°
2026-04-25 09:43 31.49433 37.25926 23936 ft 428 kts 267°
2026-04-25 09:43 31.49418 37.22482 23221 ft 426 kts 267°
2026-04-25 09:43 31.49402 37.19025 22476 ft 422 kts 267°
2026-04-25 09:43 31.49386 37.15601 21770 ft 418 kts 267°
2026-04-25 09:44 31.49370 37.12217 21100 ft 413 kts 267°
2026-04-25 09:44 31.49353 37.08868 20416 ft 409 kts 267°
2026-04-25 09:44 31.49334 37.05546 19727 ft 406 kts 267°
2026-04-25 09:44 31.49484 37.02245 19043 ft 405 kts 275°
2026-04-25 09:45 31.50081 36.99022 18360 ft 405 kts 282°
2026-04-25 09:45 31.50855 36.95885 17578 ft 404 kts 284°
2026-04-25 09:45 31.51727 36.92765 16840 ft 401 kts 286°
2026-04-25 09:45 31.52636 36.89686 16118 ft 398 kts 287°
2026-04-25 09:46 31.53555 36.86625 15385 ft 396 kts 287°
2026-04-25 09:46 31.54463 36.83584 14649 ft 394 kts 287°
2026-04-25 09:46 31.55359 36.80547 13905 ft 393 kts 287°
2026-04-25 09:46 31.56245 36.77516 13102 ft 392 kts 287°
2026-04-25 09:47 31.57123 36.74497 12364 ft 389 kts 287°
2026-04-25 09:47 31.57991 36.71513 11658 ft 386 kts 287°
2026-04-25 09:47 31.58839 36.68581 11399 ft 370 kts 287°
2026-04-25 09:47 31.59639 36.65821 11266 ft 353 kts 287°
2026-04-25 09:48 31.60403 36.63185 11147 ft 336 kts 286°
2026-04-25 09:48 31.61149 36.60620 11014 ft 321 kts 286°
2026-04-25 09:48 31.61852 36.58195 10899 ft 307 kts 286°
2026-04-25 09:48 31.62522 36.55873 10753 ft 294 kts 286°
2026-04-25 09:49 31.63163 36.53649 10644 ft 282 kts 286°
2026-04-25 09:49 31.63787 36.51482 10331 ft 279 kts 285°
2026-04-25 09:49 31.64418 36.49329 9954 ft 279 kts 288°
2026-04-25 09:49 31.65382 36.47309 9626 ft 288 kts 306°
2026-04-25 09:50 31.66686 36.45555 9332 ft 283 kts 311°
2026-04-25 09:50 31.68027 36.43869 8960 ft 281 kts 311°
2026-04-25 09:50 31.69356 36.42200 8568 ft 279 kts 311°
2026-04-25 09:50 31.70681 36.40527 8136 ft 280 kts 311°
2026-04-25 09:51 31.71988 36.38873 7680 ft 272 kts 311°
2026-04-25 09:51 31.73264 36.37254 7290 ft 268 kts 311°
2026-04-25 09:51 31.74516 36.35661 7038 ft 262 kts 311°
2026-04-25 09:51 31.75713 36.34078 6855 ft 257 kts 306°
2026-04-25 09:52 31.76475 36.32216 6690 ft 252 kts 280°
2026-04-25 09:52 31.76683 36.30216 6576 ft 245 kts 272°
2026-04-25 09:52 31.76768 36.28257 6443 ft 236 kts 270°
2026-04-25 09:52 31.76753 36.26342 6272 ft 234 kts 265°
2026-04-25 09:53 31.76617 36.24434 6075 ft 233 kts 261°
2026-04-25 09:53 31.76364 36.22559 5875 ft 231 kts 258°
2026-04-25 09:53 31.76087 36.20714 5670 ft 226 kts 259°
2026-04-25 09:53 31.75828 36.18908 5414 ft 222 kts 259°
2026-04-25 09:54 31.75577 36.17126 5140 ft 219 kts 260°
2026-04-25 09:54 31.75325 36.15373 4845 ft 216 kts 260°
2026-04-25 09:54 31.75076 36.13645 4557 ft 213 kts 261°
2026-04-25 09:54 31.74837 36.11970 4284 ft 201 kts 260°
2026-04-25 09:55 31.74611 36.10405 4028 ft 188 kts 260°
2026-04-25 09:55 31.74396 36.08922 3794 ft 179 kts 260°
2026-04-25 09:55 31.74198 36.07539 3560 ft 164 kts 261°
2026-04-25 09:55 31.74019 36.06290 3370 ft 150 kts 261°
2026-04-25 09:56 31.73853 36.05130 3166 ft 140 kts 259°
2026-04-25 09:56 31.73689 36.03998 2981 ft 141 kts 259°
2026-04-25 09:56 31.73524 36.02841 2786 ft 144 kts 257°
2026-04-25 09:56 31.73356 36.01661 2614 ft 147 kts 257°
2026-04-25 09:57 31.73189 36.00479 2428 ft 146 kts 255°
2026-04-25 09:57 31.73028 35.99384 2415 ft 116 kts 261°
2026-04-25 09:57 31.72937 35.98744 2415 ft 61 kts 260°
2026-04-25 09:57 31.72885 35.98380 2415 ft 25 kts 260°
2026-04-25 09:58 31.72857 35.98220 2415 ft 13 kts 246°
2026-04-25 09:58 31.72782 35.98191 2415 ft 12 kts 171°
2026-04-25 09:58 31.72695 35.98208 2414 ft 13 kts 170°
2026-04-25 09:58 31.72607 35.98244 2415 ft 13 kts 131°
2026-04-25 09:59 31.72601 35.98353 2415 ft 14 kts 80°
2026-04-25 09:59 31.72619 35.98477 2415 ft 16 kts 80°
2026-04-25 09:59 31.72639 35.98612 2417 ft 14 kts 80°
2026-04-25 09:59 31.72656 35.98730 2416 ft 16 kts 80°
2026-04-25 10:00 31.72670 35.98843 2416 ft 9 kts 89°
2026-04-25 10:00 31.72634 35.98892 2415 ft 8 kts 166°
2026-04-25 10:00 31.72584 35.98903 2416 ft 7 kts 169°
2026-04-25 10:00 31.72536 35.98895 2415 ft 7 kts 217°
2026-04-25 10:01 31.72517 35.98840 2417 ft 9 kts 259°
2026-04-25 10:01 31.72505 35.98761 2416 ft 11 kts 260°
2026-04-25 10:01 31.72491 35.98666 2417 ft 12 kts 261°
2026-04-25 10:01 31.72472 35.98579 2416 ft 8 kts 229°
2026-04-25 10:02 31.72442 35.98575 2415 ft 4 kts 169°
2026-04-25 10:02 31.72415 35.98580 2416 ft 3 kts 171°
2026-04-25 10:02 31.72403 35.98583 2415 ft 0 kts 171°